Bookmark and Share
Track history (hours):
 

North River

More information available from US FCC via Universal Licensing System and Coast Guard Vessel Documentation Center.

Last reported at 2014-Apr-23 20:33 UTC. Time now 2014-Apr-24 04:30 UTC.
Position N 40°47' W 073°56'.

Length 78 m.

Type: Tanker. MMSI: 367074110.

NotesDate/timePositionNaut miles runAvg speedWind from/ knotsBaromVisibWave heightAir tempDewpointWater temp
2014-Apr-23 20:33N 40°47' W 073°56'1313.0
2014-Apr-23 19:34N 40°34' W 074°01'8 3.8
2014-Apr-23 17:29N 40°38' W 073°52'0 0.0
2014-Apr-23 16:32N 40°38' W 073°52'4 3.2
2014-Apr-23 15:24N 40°35' W 073°50'0 0.0
2014-Apr-23 14:32N 40°35' W 073°50'8 6.4
2014-Apr-23 13:15N 40°34' W 074°01'913.2
2014-Apr-23 12:33N 40°43' W 073°58'4 0.3
2014-Apr-22 21:28N 40°47' W 073°55'4 4.5
2014-Apr-22 20:33N 40°46' W 074°01'1 0.5
2014-Apr-22 18:10N 40°47' W 073°60'813.5
2014-Apr-22 17:33N 40°39' W 074°04'3 2.5
2014-Apr-22 16:33N 40°38' W 074°08'0 0.0
2014-Apr-22 15:33N 40°39' W 074°08'13 4.2
2014-Apr-22 12:33N 40°49' W 073°58'3 2.4
2014-Apr-22 11:30N 40°47' W 073°56'1 1.1
2014-Apr-22 10:33N 40°47' W 073°55'3 0.2
2014-Apr-21 21:33N 40°45' W 073°58'5 1.5
2014-Apr-21 18:32N 40°49' W 073°58'1313.2
2014-Apr-21 17:33N 40°39' W 074°07'0 0.2
2014-Apr-21 16:33N 40°38' W 074°08'0 0.5
2014-Apr-21 15:33N 40°39' W 074°07'1312.9
2014-Apr-21 14:33N 40°50' W 073°58'2 1.2
2014-Apr-21 12:33N 40°48' W 073°59'2 2.3
2014-Apr-21 11:33N 40°46' W 073°57'1 1.3
2014-Apr-21 10:34N 40°47' W 073°55'2 0.1
2014-Apr-19 20:33N 40°46' W 073°57'2 1.6
2014-Apr-19 19:33N 40°44' W 073°58'0 0.3
2014-Apr-19 18:34N 40°44' W 073°58'5 5.3
2014-Apr-19 17:31N 40°48' W 073°53'6 2.8
2014-Apr-19 15:33N 40°44' W 073°58'2 0.8
2014-Apr-19 12:28N 40°45' W 074°01'4 4.2
2014-Apr-19 11:33N 40°47' W 073°56'0 0.0
2014-Apr-18 18:33N 40°47' W 073°56'1110.9
2014-Apr-18 17:33N 40°39' W 074°06'2 1.5
2014-Apr-18 16:33N 40°38' W 074°08'0 0.0
2014-Apr-18 15:33N 40°38' W 074°08'4 4.2
2014-Apr-18 14:33N 40°39' W 074°02'0 0.0
2014-Apr-18 13:33N 40°39' W 074°02'6 6.2
2014-Apr-18 12:33N 40°44' W 073°58'4 3.9
2014-Apr-18 11:33N 40°47' W 073°55'2 0.1
2014-Apr-17 16:32N 40°48' W 073°53'0 0.1
2014-Apr-17 15:22N 40°48' W 073°53'1 0.6
2014-Apr-17 14:26N 40°48' W 073°52'2 0.8
2014-Apr-17 12:20N 40°48' W 073°50'4 0.3
2014-Apr-16 22:07N 40°47' W 073°55'610.5
2014-Apr-16 21:34N 40°42' W 073°59'9 8.2
2014-Apr-16 20:30N 40°34' W 073°58'6 6.1
2014-Apr-16 19:30N 40°38' W 073°52'0 0.0
2014-Apr-16 17:22N 40°38' W 073°52'4 4.4
2014-Apr-16 16:33N 40°35' W 073°50'0 0.0
2014-Apr-16 15:33N 40°35' W 073°50'4 3.6
2014-Apr-16 14:32N 40°34' W 073°54'8 8.7
2014-Apr-16 13:33N 40°41' W 074°01'6 0.3
2014-Apr-15 19:28N 40°46' W 073°57'1010.9
2014-Apr-15 18:34N 40°39' W 074°06'4 4.0
2014-Apr-15 17:33N 40°43' W 074°07'0 0.0
2014-Apr-15 16:31N 40°43' W 074°07'2 2.2
2014-Apr-15 15:33N 40°41' W 074°08'5 4.9
2014-Apr-15 14:33N 40°39' W 074°02'0 0.0
2014-Apr-15 12:34N 40°39' W 074°02'3 2.8
2014-Apr-15 11:34N 40°41' W 074°01'5 0.3
2014-Apr-14 19:34N 40°45' W 073°58'4 1.0
2014-Apr-14 15:34N 40°42' W 074°00'8 8.4
2014-Apr-14 14:34N 40°48' W 073°53'0 0.0
2014-Apr-14 13:33N 40°48' W 073°53'2 0.5
2014-Apr-14 10:32N 40°47' W 073°55'0 0.1
2014-Apr-14 09:34N 40°47' W 073°55'  

Dump ship's entire track history

sailing weather and tide predictions

North River — WYR2549 — position and weather